Helicity
79 65 59 64 67 71 72 72 73 66 56 50 53 69 97 113 131 147 119 113 146 160 101 150 131 123 124 139 123 80 81 68 89 76 70 57 88 87 97 142 135 167 153 164 170 131 7 105 163 129 123 156 199 202
82 82 79 78 75 74 72 81 80 77 74 68 59 56 81 111 133 165 146 126 118 171 115 111 137 172 162 152 113 106 97 91 81 103 102 103 131 176 165 148 182 127 134 157 231 146 164 192 217 150 201 206 230 244
89 108 111 110 109 109 98 93 77 75 73 52 46 59 68 92 122 178 167 173 162 157 100 93 87 50 124 172 61 92 122 148 197 203 161 160 170 198 203 165 185 165 253 308 202 240 192 233 231 237 250 242 204 201
97 104 107 109 114 122 120 107 96 87 87 76 52 46 50 68 114 178 211 185 208 173 173 77 8 20 59 98 130 193 222 236 218 206 203 248 309 176 207 191 265 408 398 378 239 280 190 189 123 136 127 117 139 144
109 107 108 111 101 89 81 75 70 68 67 68 57 40 39 49 96 184 186 220 230 215 251 182 88 109 155 174 205 218 250 231 255 259 268 267 236 272 254 300 409 617 526 429 238 208 172 138 103 83 123 105 111 162
123 129 125 120 117 122 108 84 49 51 55 62 75 56 55 71 163 294 168 165 253 295 266 223 141 107 162 149 149 186 208 264 309 280 240 255 332 289 233 380 537 381 358 331 378 171 151 100 122 158 148 133 130 132
103 111 120 118 120 126 114 111 98 83 71 72 80 73 83 100 291 316 219 223 142 256 234 181 121 89 87 110 120 164 210 223 239 320 356 364 380 286 355 401 477 236 207 235 264 190 171 235 255 196 167 127 115 123
100 114 118 119 119 115 115 110 108 117 108 94 91 102 101 107 257 284 289 281 250 257 214 289 372 345 247 180 161 176 205 254 277 278 388 410 347 380 354 632 440 264 259 186 194 185 216 128 148 186 207 190 181 152
88 93 96 106 100 96 98 104 118 119 110 110 93 102 157 237 362 283 191 216 424 323 384 484 489 285 263 188 210 240 272 236 193 316 369 264 340 391 494 341 314 294 237 214 147 138 111 95 90 138 211 234 247 216
89 86 89 89 84 86 93 100 103 104 90 88 114 151 283 259 256 240 260 273 349 458 547 694 658 582 402 380 358 284 210 210 237 194 225 250 410 329 451 357 270 205 163 133 109 130 138 122 120 122 161 190 228 221
87 89 87 93 88 85 91 98 106 107 74 98 178 254 205 153 167 171 257 387 444 616 608 692 538 479 388 384 343 220 271 240 251 244 284 306 236 275 145 105 85 42 55 59 76 123 147 167 195 185 145 140 165 205
88 85 84 84 84 80 86 99 109 110 143 144 114 161 162 169 192 297 428 420 484 391 341 267 200 220 271 327 266 226 281 293 293 300 320 323 96 143 99 66 62 36 56 63 77 114 128 137 142 141 144 149 126 168
88 84 84 80 81 86 93 105 110 97 93 101 131 178 181 207 380 496 588 678 507 291 151 157 200 218 292 240 279 316 361 358 424 401 407 284 138 138 61 103 81 80 74 89 126 126 109 104 109 127 154 160 109 141
75 78 80 78 81 85 92 106 104 91 162 198 228 275 296 370 422 459 453 348 249 246 244 252 300 261 307 333 331 390 370 438 443 370 238 186 127 65 16 5 92 223 246 278 237 185 72 9 -18 24 77 146 156 155
62 68 72 82 77 76 82 90 79 103 182 260 260 368 394 417 371 297 228 231 151 115 147 147 122 205 263 304 319 377 438 498 291 267 151 16 94 123 33 55 76 83 113 210 164 -1 16 42 54 48 78 135 147 142
51 56 93 74 73 52 39 94 159 191 233 270 319 431 417 383 342 315 258 216 168 202 253 200 204 249 299 286 279 273 388 395 264 179 56 22 13 5 4 24 5 11 26 44 42 63 90 97 109 111 109 137 147 129
50 150 74 53 39 33 38 175 220 263 254 362 371 337 293 268 226 211 198 213 118 135 154 111 130 83 155 216 336 350 336 208 110 62 68 -45 -136 -42 2 11 -11 -19 -6 48 97 142 151 158 163 166 137 153 137 178
112 116 49 41 62 76 118 189 322 335 361 345 337 289 325 220 170 192 156 128 94 115 83 98 73 83 135 209 285 264 211 183 117 72 77 68 110 71 -17 -25 -15 -4 52 111 177 191 215 198 221 225 177 165 153 142
102 114 65 64 66 149 155 183 360 396 320 322 299 259 261 206 175 148 112 115 124 155 142 160 160 185 196 254 210 194 181 133 125 119 97 44 -14 -46 -35 -6 13 35 63 95 94 124 170 166 192 210 247 214 148 137
49 44 48 54 66 165 200 228 334 448 366 339 331 295 293 231 188 204 190 200 230 211 182 242 258 291 263 205 167 158 143 95 82 51 43 41 46 50 62 86 114 136 138 158 194 176 223 218 215 258 258 257 254 197
64 82 67 71 135 154 222 184 237 327 371 345 278 236 235 234 206 182 180 218 197 214 192 236 241 216 188 171 145 151 146 119 124 164 159 113 82 108 128 144 152 175 185 186 197 193 192 242 189 205 270 321 294 266
151 85 149 124 151 130 123 267 299 259 278 291 250 234 260 241 198 223 195 194 178 195 285 221 230 233 171 133 164 153 142 135 142 173 167 158 142 146 157 174 182 202 216 232 234 238 232 223 231 249 235 256 297 303
125 149 182 167 119 125 116 176 260 394 366 287 293 268 333 325 263 330 278 256 260 249 239 203 166 139 128 108 123 131 144 149 154 135 139 152 184 202 210 218 259 240 222 236 208 228 268 243 240 249 230 206 287 299
137 193 193 162 156 151 194 221 240 235 295 351 328 319 313 307 304 293 208 218 251 223 180 171 191 157 145 145 147 129 128 164 153 164 163 163 167 163 183 191 175 158 156 173 170 180 193 202 207 258 217 190 257 274
153 218 250 209 218 193 197 258 328 364 351 327 321 288 299 271 250 246 238 187 226 227 215 211 204 214 176 144 130 112 80 116 130 137 119 156 186 141 142 181 168 147 129 129 151 7 -24 146 197 183 187 226 222 202
141 119 177 171 307 288 284 269 228 316 325 295 264 268 273 254 255 253 264 255 184 186 177 168 153 166 158 181 163 147 160 194 210 165 160 139 140 144 151 150 146 140 126 146 153 -14 6 117 142 157 158 162 164 143
174 194 163 241 263 279 366 404 382 345 303 321 301 301 322 313 282 312 274 236 213 220 222 220 238 237 220 200 213 216 223 291 309 217 147 114 136 156 181 163 68 6 72 147 167 140 131 118 115 122 154 130 85 58
99 117 202 221 215 291 347 375 346 318 310 332 345 351 333 326 305 288 270 174 203 220 233 247 275 298 296 316 333 276 259 297 238 204 218 168 164 173 159 154 -0 -62 69 116 134 121 107 73 56 44 42 40 45 56
166 189 250 279 332 329 271 231 247 283 307 366 342 335 402 431 315 213 176 198 213 222 232 238 275 320 292 280 252 258 305 304 259 168 107 -19 -29 -10 81 38 88 179 144 110 52 53 76 85 77 70 58 58 57 65
137 179 285 307 365 324 335 314 293 271 372 373 396 376 292 282 285 307 283 252 259 275 272 219 227 232 263 227 195 182 225 241 235 173 -26 -30 -9 14 28 61 183 168 152 110 59 53 48 72 77 93 85 84 89 91
183 279 299 271 249 227 222 322 359 306 279 283 330 310 224 256 260 271 259 265 308 320 248 75 -8 69 113 24 29 8 -11 155 94 17 24 8 -11 -14 13 131 155 127 83 39 49 68 69 65 81 77 83 78 78 86
187 213 271 277 233 260 267 194 248 277 257 276 220 283 214 161 -19 10 114 248 174 136 78 24 8 31 85 26 56 55 75 70 51 6 -20 -11 13 -2 12 96 86 78 50 41 47 49 46 56 74 83 94 110 120 112
201 207 223 215 195 202 264 340 300 253 263 167 140 158 137 104 -6 118 158 270 134 12 -13 67 174 194 120 58 67 60 62 29 11 4 22 52 -7 -38 5 43 67 63 63 65 62 63 62 73 76 83 94 77 58 59
Wind_Speed
63 63 64 62 59 57 57 57 56 55 54 52 50 43 38 33 33 35 37 32 36 42 45 29 26 29 35 33 33 34 36 28 27 24 26 23 21 21 21 16 15 11 15 11 14 9 13 16 26 20 19 20 15 12
69 68 66 64 62 58 59 58 58 57 57 55 53 49 42 35 31 32 38 34 32 35 45 42 34 30 29 30 30 24 32 33 22 28 29 35 28 35 28 28 19 11 6 15 2 6 26 10 20 12 20 17 11 10
70 69 69 68 62 61 64 63 60 60 61 60 56 52 47 38 30 28 39 35 40 46 53 46 39 33 27 24 23 29 36 31 35 34 36 37 33 36 36 31 28 26 13 18 21 25 33 27 25 24 22 20 16 13
71 70 68 68 69 70 68 65 63 62 62 62 59 57 51 43 31 27 40 34 37 45 56 49 40 40 31 22 20 29 38 38 39 40 40 44 42 30 42 35 41 39 35 21 39 53 44 41 27 30 32 28 24 19
71 71 71 71 71 70 70 67 65 65 65 63 59 59 56 49 35 31 37 36 30 39 55 60 67 55 47 38 36 31 30 34 42 45 42 44 47 46 49 49 32 33 35 28 28 34 31 40 47 41 38 41 37 30
71 71 71 71 70 70 70 68 67 64 62 60 58 58 56 50 35 41 59 42 27 33 52 66 50 51 49 43 42 37 32 36 37 42 44 45 46 49 52 56 58 48 34 35 37 32 30 34 66 56 41 43 44 41
71 69 70 70 70 70 70 71 70 67 65 62 59 58 56 49 34 46 49 42 20 24 50 66 64 46 39 35 42 45 39 42 43 49 50 49 49 43 56 67 46 57 49 47 43 52 39 43 49 43 37 36 40 48
70 68 67 66 66 67 69 70 70 70 69 64 62 60 58 51 41 55 47 30 21 43 48 63 64 58 38 49 50 40 46 47 49 52 52 54 47 45 63 47 47 59 62 67 64 61 51 60 67 54 46 44 43 43
69 67 67 65 64 64 66 66 66 66 62 59 55 55 51 47 50 54 36 32 43 48 58 56 60 71 41 48 49 48 47 61 52 56 57 49 49 53 53 64 71 69 61 65 63 65 71 67 57 61 52 50 46 46
69 68 67 65 64 63 65 65 63 63 61 58 47 45 52 45 29 32 45 46 51 55 58 66 55 69 54 60 60 57 54 59 71 63 49 60 69 57 62 57 63 65 66 68 75 78 69 66 62 60 54 52 52 52
68 66 65 61 60 60 61 60 60 59 50 45 48 50 44 30 39 45 52 53 52 65 58 62 59 69 52 64 61 51 58 57 74 68 60 71 77 71 62 58 57 64 63 62 62 62 61 61 67 66 64 60 56 56
65 63 61 60 57 56 55 54 52 48 44 45 39 35 37 44 49 56 61 55 59 69 56 58 60 52 49 48 53 51 61 56 76 50 66 78 76 76 71 75 72 69 64 65 58 60 63 65 65 64 66 66 63 55
65 65 62 60 57 54 52 51 47 41 33 39 46 45 47 49 67 71 76 67 64 56 52 51 58 49 48 47 53 53 65 68 53 70 81 80 80 81 88 81 79 70 64 64 65 69 69 71 68 64 67 63 60 53
67 65 64 63 59 56 53 47 44 37 41 48 53 64 60 64 65 65 67 64 60 59 53 52 59 57 53 54 56 67 61 56 73 86 87 80 80 74 73 70 70 69 66 67 71 77 79 80 80 74 68 65 62 61
70 68 66 63 59 54 49 46 40 38 43 53 51 68 75 70 64 61 55 56 52 43 43 53 58 56 59 65 59 63 69 80 76 81 70 67 69 74 73 78 83 88 89 92 89 78 85 84 82 84 77 73 71 70
72 71 70 65 62 56 49 42 42 43 49 55 61 73 67 70 67 64 64 65 52 49 51 56 61 64 67 63 67 74 80 91 82 69 70 76 84 86 85 83 83 87 94 93 88 91 94 87 84 83 81 79 77 75
70 72 61 59 58 55 49 47 45 55 56 63 75 71 76 77 72 60 56 60 46 50 64 60 67 67 57 65 74 61 72 76 77 85 87 91 95 99 99 102 104 103 101 105 106 103 99 91 83 84 91 91 85 83
73 63 60 57 53 58 56 50 54 58 74 74 80 75 67 69 73 73 68 59 60 66 69 79 74 85 88 97 98 92 95 100 103 106 107 106 106 113 116 119 118 114 112 110 106 103 96 92 93 95 96 92 90 91
67 65 65 61 56 55 58 61 58 72 77 77 80 76 72 74 69 69 67 63 61 66 73 79 82 87 88 85 91 91 95 98 104 105 107 111 113 115 117 113 112 111 112 109 106 102 97 94 93 91 85 82 84 87
65 68 66 63 53 59 62 66 55 71 82 80 78 81 78 84 84 80 78 75 74 77 86 89 97 98 102 106 106 101 99 101 113 122 121 114 105 103 102 101 102 103 101 96 93 90 92 92 84 80 77 74 75 77
65 63 64 64 66 70 63 55 55 62 69 77 76 72 75 74 79 81 83 71 74 81 90 89 96 100 98 98 99 100 102 100 100 98 103 109 104 102 102 99 96 93 93 95 95 94 88 83 81 76 69 66 64 65
59 56 57 56 65 65 72 59 61 60 64 69 69 67 76 79 80 79 73 73 78 82 81 88 92 95 100 99 97 91 90 91 91 91 93 93 98 97 97 95 96 96 94 93 89 86 82 77 74 68 65 63 62 64
53 51 55 57 65 67 72 52 63 65 72 72 70 78 78 75 72 60 73 76 83 84 87 90 94 93 91 93 91 89 85 87 91 87 85 83 83 86 89 90 87 91 94 89 81 78 75 71 69 66 66 66 65 64
47 53 57 59 60 66 51 57 58 61 60 62 65 73 70 72 64 68 82 85 81 86 85 87 88 92 88 87 90 90 87 77 76 80 78 81 88 91 92 91 88 83 77 80 78 73 71 59 51 51 55 59 58 54
58 57 59 62 58 61 62 58 57 55 59 54 63 72 66 54 67 75 85 87 81 84 88 86 83 80 83 87 87 85 76 70 73 80 82 81 90 97 96 85 82 76 75 78 64 47 50 48 45 40 43 41 44 43
61 57 55 49 58 56 55 58 54 55 58 61 62 61 58 68 79 84 82 82 88 88 90 85 83 84 86 81 85 84 82 74 76 86 87 84 87 91 97 98 100 92 75 63 64 67 70 62 47 37 34 32 33 31
63 60 53 53 52 50 54 57 55 56 55 57 59 58 62 75 80 79 74 81 91 89 83 82 82 82 85 87 83 79 81 79 83 91 94 96 87 81 76 79 53 86 87 68 50 46 44 38 33 30 29 26 19 22
66 59 62 55 52 50 57 58 56 59 57 52 50 58 66 71 84 81 85 91 84 85 87 85 82 82 84 84 82 88 90 86 90 91 95 96 88 83 76 65 51 64 33 42 35 33 32 28 23 23 22 26 26 21
64 62 51 54 56 58 59 61 59 51 47 50 66 73 75 75 78 89 94 93 90 91 98 99 95 87 91 92 94 91 84 85 91 105 113 115 108 101 79 85 83 34 38 40 30 25 26 21 18 15 14 14 17 21
54 44 51 55 56 55 49 42 49 47 54 56 65 76 78 76 71 74 81 88 92 85 90 100 99 97 96 101 107 98 78 72 66 52 61 90 92 89 82 77 59 49 42 37 31 28 25 19 19 17 18 22 27 29
39 39 55 56 66 58 41 53 65 71 70 71 67 61 57 59 73 74 58 57 66 73 60 71 82 74 104 87 67 81 89 69 35 60 71 77 80 82 84 57 43 37 34 32 28 24 19 15 15 20 22 23 22 23
41 39 35 51 79 68 63 67 70 66 64 61 56 62 54 52 88 69 50 64 46 53 56 56 59 65 55 61 59 62 68 71 68 68 60 49 53 41 14 13 15 23 26 24 23 23 23 23 24 21 20 23 21 20
49 58 63 70 73 69 63 56 59 62 53 42 45 45 49 53 71 92 87 63 27 35 45 50 50 50 56 56 53 57 59 56 41 25 19 17 16 7 19 16 17 18 19 21 20 20 19 20 21 23 24 22 19 13
Wind_Direction
306 309 311 314 317 321 325 327 331 334 338 341 344 347 348 353 358 3 3 11 359 348 339 346 350 343 341 346 344 351 355 9 13 15 16 23 21 25 20 24 25 29 36 41 42 36 48 62 44 37 35 35 44 55
301 303 306 308 311 315 318 321 324 326 329 333 335 337 339 338 343 350 348 355 358 344 335 338 332 327 325 333 339 341 340 348 1 359 355 351 351 344 347 349 9 355 4 359 310 333 345 345 341 333 355 354 0 358
300 302 303 304 307 310 312 314 316 319 322 324 328 330 331 329 328 333 337 343 343 337 333 334 340 340 328 317 326 332 329 328 325 333 338 338 333 338 334 333 337 337 296 299 327 315 257 272 278 291 307 289 290 295
296 299 301 303 304 305 307 308 311 313 315 317 320 323 324 323 317 316 325 331 335 334 326 330 342 342 350 342 321 314 317 324 323 322 321 321 323 332 328 327 322 316 327 303 261 260 262 261 276 294 301 308 300 302
296 298 299 300 302 303 304 306 308 310 310 312 313 317 318 318 312 307 314 317 319 324 317 315 313 318 319 317 312 311 307 311 311 313 314 316 319 319 319 320 285 304 306 293 287 264 270 304 320 323 320 319 319 316
296 298 299 300 301 303 303 304 306 308 309 309 310 312 314 313 311 313 314 316 293 313 320 315 321 317 318 319 314 314 312 312 308 310 312 315 312 316 321 319 321 315 294 287 279 285 280 270 306 307 308 312 314 314
295 298 299 300 301 302 303 303 305 305 306 306 307 308 309 308 294 297 311 327 333 321 316 314 312 324 328 332 321 314 315 316 313 307 305 309 314 313 315 314 314 322 315 307 299 306 296 308 309 310 303 303 307 309
292 296 299 302 303 303 303 304 305 305 304 303 303 304 305 305 294 294 299 308 308 312 310 305 305 308 320 318 316 320 314 311 309 306 310 308 313 308 313 294 293 315 316 312 310 308 302 308 309 308 308 308 307 305
291 294 296 300 302 303 304 306 307 307 308 308 306 306 305 299 293 298 302 289 296 296 301 299 297 301 319 316 317 315 314 307 310 303 305 307 302 305 310 314 315 316 315 316 319 316 312 310 308 304 302 301 301 301
288 291 293 296 298 300 302 305 307 309 309 306 308 304 299 303 308 310 304 295 292 293 289 291 294 294 301 305 305 309 310 306 301 303 311 303 300 299 304 303 311 313 312 313 314 315 315 314 313 310 305 302 297 297
287 289 291 294 296 299 301 304 308 310 311 308 299 297 306 311 303 300 296 291 293 295 295 291 283 290 300 298 299 302 304 306 300 302 301 304 307 320 323 318 316 316 315 314 311 312 315 316 316 315 313 310 304 301
286 288 290 291 294 297 300 303 307 308 306 308 308 309 303 297 294 290 289 293 290 294 297 298 300 295 302 304 299 300 298 300 297 305 302 303 313 317 319 319 320 320 318 319 318 318 320 320 319 318 315 313 309 303
285 285 286 288 290 292 295 300 302 303 306 304 301 299 296 290 282 284 282 289 293 296 298 300 301 301 300 299 298 298 295 293 304 297 297 302 310 317 318 319 320 321 320 320 320 321 322 322 323 321 318 317 313 306
282 283 283 283 285 287 288 291 295 295 297 290 289 284 281 287 289 284 284 291 295 297 296 295 297 297 297 292 294 294 294 297 295 294 298 306 312 320 323 324 324 325 325 322 320 320 319 319 319 319 317 315 311 305
279 279 281 280 280 282 282 284 284 285 285 280 284 281 278 282 286 294 295 298 303 305 301 301 298 293 292 291 293 293 291 289 293 298 305 316 320 320 322 322 320 316 314 313 313 314 317 319 317 317 316 313 309 305
277 278 276 279 277 277 277 276 277 276 281 278 277 279 284 286 287 289 290 292 300 298 300 300 296 294 286 288 286 285 288 288 297 300 306 311 313 315 318 316 315 317 315 314 311 309 312 313 312 312 312 310 307 303
274 274 276 276 275 271 270 271 272 269 274 273 275 274 276 282 285 288 291 293 295 294 293 296 293 291 297 291 287 289 289 295 301 304 306 309 310 310 312 312 311 311 311 310 309 307 306 306 307 308 307 306 304 300
270 275 275 272 271 273 271 263 267 271 268 270 275 275 278 281 283 284 286 289 288 288 290 288 291 284 283 284 285 290 293 296 298 300 301 303 304 305 306 306 307 307 307 307 307 307 307 305 303 303 305 304 303 300
270 272 270 270 268 269 270 270 262 268 268 273 273 277 278 281 282 284 286 287 287 289 289 288 288 285 285 288 291 295 298 300 300 302 302 303 304 305 306 306 306 306 306 306 305 304 305 304 304 305 304 304 302 304
269 269 269 268 260 266 270 270 270 266 271 273 274 274 277 279 282 282 283 284 284 285 283 282 281 283 286 290 292 294 296 299 299 299 299 302 305 307 307 309 309 310 310 310 309 308 307 306 308 306 302 301 301 301
269 268 270 266 265 262 266 271 272 272 274 275 278 276 278 283 281 281 283 286 284 282 284 285 286 288 290 291 293 294 295 297 297 299 301 302 305 306 307 308 310 311 311 312 311 310 309 306 307 308 306 304 302 301
270 267 270 266 267 267 267 262 268 273 274 279 281 278 279 277 279 283 288 283 284 287 289 291 291 292 292 291 291 292 294 296 298 300 302 303 304 306 307 308 309 309 311 312 313 312 312 311 310 307 305 304 304 304
269 269 268 266 267 266 267 265 267 264 269 275 278 279 279 282 283 287 284 285 288 291 294 295 295 294 292 292 292 293 295 296 297 299 301 304 307 308 310 310 309 310 311 313 314 314 313 313 311 308 306 304 304 305
264 265 264 268 263 268 267 263 267 270 273 272 276 279 283 285 290 286 286 288 291 295 297 297 298 296 295 293 292 292 294 296 296 299 302 305 306 308 310 311 312 312 314 315 315 317 317 314 310 310 309 305 304 303
263 261 263 265 263 265 267 266 264 269 272 275 275 280 287 294 289 287 287 291 296 296 297 300 299 296 294 295 295 294 292 292 296 300 304 306 307 308 310 311 312 314 315 315 316 278 272 317 316 314 314 308 305 305
261 261 268 262 259 262 263 266 267 269 273 276 279 288 289 287 286 288 290 293 294 296 296 297 296 296 294 295 294 294 293 292 294 297 301 306 307 307 307 308 308 307 314 314 316 284 288 321 322 322 323 319 313 311
260 263 271 270 266 269 270 271 271 273 276 279 287 287 287 286 287 292 296 295 294 295 297 297 296 295 295 295 295 295 296 293 292 295 299 302 304 305 305 307 280 268 301 311 316 317 320 326 329 328 327 328 327 321
266 265 262 265 268 268 268 270 271 274 279 285 289 284 287 288 290 296 297 296 299 301 299 299 298 297 295 295 294 295 296 296 295 296 297 298 300 300 302 304 256 251 273 314 314 318 321 329 337 339 336 330 330 334
264 265 267 260 264 270 270 274 277 279 282 281 282 283 285 287 293 295 296 298 301 301 300 299 298 299 297 296 295 295 293 293 293 291 289 277 278 278 298 283 282 311 315 318 317 317 322 326 332 338 344 348 345 340
259 263 266 266 264 267 274 277 281 277 282 279 285 289 291 293 296 299 302 302 302 301 301 299 299 300 299 297 293 292 291 290 289 282 250 254 260 270 282 286 303 312 315 319 322 322 325 334 341 347 344 336 329 327
266 262 273 273 273 280 266 284 287 288 288 288 288 285 275 287 299 301 295 297 302 303 291 265 263 276 291 273 257 251 252 290 266 234 236 243 252 260 269 295 303 310 317 322 323 325 328 329 332 330 328 329 330 330
273 273 269 278 275 283 289 288 289 290 291 291 288 295 290 279 259 262 260 303 280 265 258 254 256 259 258 258 249 238 236 239 236 237 230 226 235 228 214 308 313 318 321 325 325 323 325 326 328 331 333 331 332 332
282 277 277 276 280 286 293 297 300 300 298 273 265 268 262 259 254 279 293 308 263 247 249 250 250 251 256 253 240 233 229 225 217 207 209 209 190 178 320 324 322 321 320 320 322 326 328 331 335 336 336 337 341 354